Погода в Делисьясе

Мексика     28°11′31″N   105°28′25″W
темп.,
°C
ветер,
м/с
пор.,
м/с
влажн.,
%
обл.,
%
осадки,
мм/ч
давл.,
гПа
погр.,
м
17 июня, чт
чт1700:00+25вюв814370 0.0 1014621
03:00+23вюв59480 0.0 1015304
06:00+20в11590 0.0 101611
09:00+25вюв33420 0.0 10161197
12:00+31в57190 0.0 10132786
15:00+34вюв78134 0.0 10103560
18:00+33в87142 0.0 10083540
21:00+28вюв712210 0.0 1010266
18 июня, пт
пт1800:00+25юв713320 0.0 1012446
03:00+21ююз12440 0.0 101312
06:00+20в11480 0.0 101411
09:00+26ююв22340 0.0 10141132
12:00+31в35220 0.0 10112494
15:00+35вюв561354 0.0 10073449
18:00+34юв551232 0.0 10053563
21:00+28вюв510190 0.0 1007145
19 июня, сб
сб1900:00+26ююв512240 0.0 1009242
03:00+22ююв22340 0.0 101013
06:00+21ююз11370 0.0 101111
09:00+28ююв45260 0.0 1011809
12:00+33юв35180 0.0 10082485
15:00+36в43120 0.0 10053506
18:00+36зсз03124 0.0 10033923
21:00+30в221748 0.0 100431
20 июня, вс
вс2000:00+27ююв441990 0.0 100747
03:00+24ю2223100 0.0 100718
06:00+23юв332794 0.0 100830
09:00+29ю5622100 0.0 1008604
12:00+35ююз221260 0.0 10062115
15:00+38юв1411100 0.0 10033776
18:00+38вюв341058 0.0 10013773
21:00+32ю3315100 0.0 100212
21 июня, пн
пн2100:00+30ю6122190 0.0 1006301
03:00+26с223170 0.0 100612
06:00+24юз22387 0.0 100814
09:00+32ссз24259 0.0 1008907
12:00+37с77175 0.0 10072336
15:00+40ссв751386 0.0 10034750
18:00+37с781767 0.1 1003894
21:00+29с6103395 0.6 1007262